Stockton, CA

5:11 PM PDT on April 27, 2017 (GMT -0700)
Stockton Metro

Weather History for KSCK - September, 2013

Change the Weather History Date:

Friday, September 27, 2013

  Actual Average Record
Temperature  
Mean Temperature 65 °F -  
Max Temperature 79 °F 85 °F 100 °F (2010)
Min Temperature 51 °F 54 °F 47 °F (1971)
Degree Days  
Heating Degree Days 0 0  
Month to date heating degree days 6 0  
Since 1 July heating degree days 6 0  
Cooling Degree Days 0 5  
Month to date cooling degree days 198 208  
Year to date cooling degree days 1367 1252  
Growing Degree Days 15 (Base 50)    
Moisture  
Dew Point 37 °F    
Average Humidity 38    
Maximum Humidity 59    
Minimum Humidity 17    
Precipitation  
Precipitation 0.00 in 0.01 in 0.30 in (1972)
Month to date precipitation 0.28 0.24  
Year to date precipitation 3.16 9.28  
Since 1 July precipitation 0.28  
Snow  
Snow 0.00 in - 0.00 in (2002)
Month to date snowfall 0.0  
Since 1 July snowfall 0.0  
Since 1 September snowfall 0.0  
Snow Depth -    
Sea Level Pressure  
Sea Level Pressure 30.03 in    
Wind  
Wind Speed 8 mph (NW)    
Max Wind Speed 14 mph    
Max Gust Speed 22 mph    
Visibility 10 miles    
Events      
T = Trace of Precipitation, MM = Missing Value Source: NWS Daily Summary

Daily Weather History Graph

Daily Weather History Graph

Search for Another Location

Airport or City:

Trip Planner

Search our weather history database for the weather conditions in past years. The results will help you decide how hot, cold, wet, or windy it might be!

Date:

Astronomy

Sep. 27, 2013 Rise Set
Actual Time 6:57 AM PDT 6:53 PM PDT
Civil Twilight 6:31 AM PDT 7:19 PM PDT
Nautical Twilight 6:00 AM PDT 7:50 PM PDT
Astronomical Twilight 5:29 AM PDT 8:21 PM PDT
Moon 12:03 AM PDT (9/27) 2:30 PM PDT (9/27)
Length of Visible Light 12h 48m
Length of Day
11h 56m
Last Quarter, 44% of the Moon is Illuminated
Sep 27
Last Quarter
Oct 4
New
Oct 11
First Quarter
Oct 18
Full
Oct 26
Last Quarter

Hourly Weather History & Observations

Time (PDT) Temp. Dew Point Humidity Pressure Visibility Wind Dir Wind Speed Gust Speed Precip Events Conditions
12:55 AM 55.9 °F 37.9 °F 51% 29.96 in 10.0 mi NW 6.9 mph - N/A   Clear
1:55 AM 55.0 °F 39.0 °F 55% 29.99 in 10.0 mi WNW 6.9 mph - N/A   Clear
2:55 AM 55.0 °F 37.9 °F 53% 29.99 in 10.0 mi NNW 11.5 mph - N/A   Clear
3:55 AM 55.0 °F 37.0 °F 51% 29.99 in 10.0 mi NNW 11.5 mph - N/A   Clear
4:55 AM 54.0 °F 37.0 °F 53% 30.00 in 10.0 mi NNW 10.4 mph - N/A   Clear
5:55 AM 52.0 °F 37.9 °F 59% 30.02 in 10.0 mi NW 6.9 mph - N/A   Clear
6:55 AM 53.1 °F 36.0 °F 52% 30.04 in 10.0 mi NNW 11.5 mph - N/A   Clear
7:55 AM 55.9 °F 37.0 °F 49% 30.07 in 10.0 mi NNW 5.8 mph - N/A   Clear
8:55 AM 59.0 °F 37.9 °F 46% 30.08 in 10.0 mi North 9.2 mph - N/A   Clear
9:55 AM 62.1 °F 39.0 °F 43% 30.09 in 10.0 mi Variable 5.8 mph - N/A   Clear
10:55 AM 66.0 °F 39.9 °F 38% 30.09 in 10.0 mi WNW 6.9 mph - N/A   Clear
11:55 AM 70.0 °F 37.9 °F 31% 30.09 in 10.0 mi NNW 9.2 mph - N/A   Clear
12:55 PM 72.0 °F 37.0 °F 28% 30.08 in 10.0 mi West 3.5 mph - N/A   Clear
1:55 PM 73.9 °F 37.0 °F 26% 30.05 in 10.0 mi West 9.2 mph 16.1 mph N/A   Clear
2:55 PM 75.9 °F 35.1 °F 23% 30.03 in 10.0 mi WNW 6.9 mph - N/A   Clear
3:55 PM 78.1 °F 35.1 °F 21% 30.01 in 10.0 mi NW 6.9 mph - N/A   Clear
4:55 PM 78.1 °F 30.0 °F 17% 30.01 in 10.0 mi NNW 8.1 mph - N/A   Clear
5:55 PM 75.9 °F 32.0 °F 20% 30.01 in 10.0 mi NW 9.2 mph - N/A   Clear
6:55 PM 70.0 °F 37.9 °F 31% 30.01 in 10.0 mi NW 6.9 mph - N/A   Clear
7:55 PM 66.9 °F 32.0 °F 27% 30.02 in 10.0 mi Calm Calm - N/A   Clear
8:55 PM 63.0 °F 41.0 °F 45% 30.04 in 10.0 mi NW 10.4 mph - N/A   Clear
9:55 PM 64.0 °F 39.9 °F 41% 30.05 in 10.0 mi West 5.8 mph - N/A   Clear
10:55 PM 59.0 °F 39.9 °F 49% 30.05 in 10.0 mi West 3.5 mph - N/A   Clear
11:55 PM 59.0 °F 39.0 °F 48% 30.04 in 10.0 mi Calm Calm - N/A   Clear